Flag for Canada Weather past 2 weeks in Vancouver, British Columbia, Canada

Now
45 °F

Partly sunny.


Feels Like: 41 °F
Forecast: 31 / 46 °F
Wind: 6 mph from Northwest

Location: Vancouver International Air-Port

Current Time: Mar 3, 2015 at 11:44:24 AM

Latest Report: Mar 3, 2015 at 11:00 AM


Visibility: 30 mi

Pressure: 30.29 "Hg

Humidity: 37%

Dew point: 19 °F

Location of VancouverLocation

Historic Weather in Vancouver — Graph

°F

Vancouver temperature yesterday

Maximum temperature yesterday: 48 °F (at 2:00 PM)
Minimum temperature yesterday: 36 °F (at 2:00 AM)
Average temperature yesterday: 42 °F

Past Weeks' High & Low Weather Summary

 TemperatureHumidityPressure
High54 °F (Feb 18, 12:00 PM)100% (Feb 16, 8:00 PM)30.50 "Hg (Feb 16, 8:00 PM)
Low30 °F (Feb 28, 4:00 AM)36% (Mar 3, 10:00 AM)29.78 "Hg (Feb 27, 7:00 AM)
Average43 °F84%30.24 "Hg
* Reported Feb 16 10:00 AM — Mar 3 10:00 AM, Vancouver, Weather by CustomWeather, © 2015

Note: Actual official high and low records may vary slightly from our data, if they occured in-between our weather recording intervals... More about our weather records

Advertising

Vancouver weather history for previous 24 hours

 ConditionsComfort  
Time TempWeatherWind HumidityBarometerVisibility
10:00 AM
Tue, Mar 3
43 °FPartly sunny.No wind36%30.29 "Hg30 mi
9:00 AM41 °FScattered clouds.3 mph42%30.29 "Hg30 mi
8:00 AM34 °FPassing clouds.2 mph60%30.28 "Hg30 mi
7:00 AM30 °FPartly sunny.3 mph55%30.27 "Hg30 mi
6:00 AM36 °FPassing clouds.7 mph41%30.27 "Hg20 mi
5:00 AM32 °FPassing clouds.8 mph51%30.26 "Hg20 mi
4:00 AM36 °FPassing clouds.7 mph48%30.26 "Hg20 mi
3:00 AM34 °FPassing clouds.5 mph60%30.26 "Hg20 mi
2:00 AM36 °FPassing clouds.3 mph56%30.24 "Hg20 mi
1:00 AM36 °FClear.6 mph60%30.23 "Hg20 mi
12:00 AM36 °FClear.9 mph65%30.22 "Hg20 mi
11:00 PM
Mon, Mar 2
41 °FClear.3 mph57%30.21 "Hg20 mi
10:00 PM43 °FClear.2 mph66%30.18 "Hg20 mi
9:00 PM43 °FPassing clouds.5 mph71%30.15 "Hg20 mi
8:00 PM43 °FClear.3 mph81%30.14 "Hg20 mi
7:00 PM43 °FClear.2 mph81%30.11 "Hg20 mi
6:00 PM45 °FPassing clouds.7 mph81%30.09 "Hg30 mi
5:00 PM46 °FPassing clouds.10 mph82%30.07 "Hg30 mi
4:00 PM48 °FPassing clouds.16 mph82%30.06 "Hg30 mi
3:00 PM48 °FPassing clouds.15 mph76%30.07 "Hg30 mi
2:00 PM48 °FPassing clouds.16 mph76%30.07 "Hg30 mi
1:00 PM46 °FPassing clouds.17 mph82%30.08 "Hg30 mi
12:00 PM46 °FPassing clouds.17 mph76%30.09 "Hg30 mi
11:00 AM45 °FPassing clouds.17 mph81%30.10 "Hg30 mi
Weather by CustomWeather, © 2015

See weather overviewHow to use our weather pages